Preview of NWS' New Version of Forecast
This preview is not operational and should not be used for support decisions.

Regional Weather Roundup (RWR)

Issued by National Weather Service (NWS)

                            
000
ASUS46 KPQR 190410
RWROR 

OREGON REGIONAL WEATHER ROUNDUP
NATIONAL WEATHER SERVICE PORTLAND OR
900 PM PDT SAT MAY 18 2019

NOTE: "FAIR" INDICATES FEW OR NO CLOUDS BELOW 12,000 FEET WITH
NO SIGNIFICANT WEATHER AND/OR OBSTRUCTIONS TO VISIBILITY.

ORZ001>013-190500-
NORTHWEST OREGON

  
CITY           SKY/WX    TMP DP  RH WIND       PRES   REMARKS
ASTORIA        LGT RAIN  53  51  93 NE3       29.66F                  
TILLAMOOK      DRIZZLE   52  50  93 NE3       29.68S                  
NEWPORT        RAIN      52  50  93 CALM      29.70R                  
PORTLAND       LGT RAIN  58  53  84 NE3       29.65F                  
VANCOUVER WA   CLOUDY    57  53  86 NE6       29.65F                  
SCAPPOOSE      LGT RAIN  57  52  83 NW5       29.66R                  
HILLSBORO      LGT RAIN  54  51  90 W5        29.66R                  
AURORA         CLOUDY    55  51  86 NW6       29.67R                  
MCMINNVILLE    LGT RAIN  53  52  96 CALM      29.65F                  
SALEM          LGT RAIN  54  52  93 N6        29.64S                  
CORVALLIS      LGT RAIN  52  50  93 W6        29.66R                  
EUGENE         LGT RAIN  55  53  93 N5        29.65R                  
$$

ORZ021-028-190500-
SOUTHWEST OREGON

  
CITY           SKY/WX    TMP DP  RH WIND       PRES   REMARKS
NORTH BEND     CLOUDY    52  51  97 S6        29.67R                  
BROOKINGS      CLOUDY    51  50  96 SE10      29.69S                  
ROSEBURG       LGT RAIN  55  52  89 CALM      29.64F                  
SEXTON SUMMIT  LGT RAIN  39  39 100 SW14G21   29.65S VSB 1/2 WCI  31  
GRANTS PASS    DRIZZLE   52  48  87 CALM      29.69S                  
MEDFORD        CLOUDY    55  33  43 SE16      29.65R                  
$$

ORZ014>016-041-190500-
COLUMBIA GORGE

  
CITY           SKY/WX    TMP DP  RH WIND       PRES   REMARKS
TROUTDALE      LGT RAIN  57  53  86 CALM      29.65F                  
HOOD RIVER     CLOUDY    54  50  87 CALM      29.69R                  
THE DALLES     CLOUDY    59  49  69 SE6       29.66S                  
$$

ORZ029>031-041-044-049-050-061>064-502-503-505>511-190500-
EASTERN OREGON

  
CITY           SKY/WX    TMP DP  RH WIND       PRES   REMARKS
MADRAS         CLOUDY    52  39  62 SE9       29.69F                  
REDMOND        LGT RAIN  53  37  54 SE9       29.67S                  
BEND           CLOUDY    50  37  62 SE8       29.68S                  
PRINEVILLE     CLOUDY    50  37  62 MISG      29.69F                  
KLAMATH FALLS  CLOUDY    43  30  60 S14G24    29.71S                  
LAKEVIEW       RAIN      43  38  82 S9G24     29.73S                  
HERMISTON      CLOUDY    68  45  43 W7        29.62R                  
PENDLETON      MOCLDY    58  46  64 NE13      29.62S                  
JOHN DAY       CLOUDY    48  43  81 SW3       29.75R                  
MEACHAM        MOCLDY    53  37  54 CALM      29.70S                  
LA GRANDE      MOCLDY    54  40  59 SE9       29.70S                  
BAKER CITY     MOCLDY    55  39  54 SE5       29.72S                  
BURNS          CLOUDY    48  40  73 SW9       29.77R                  
ROME             N/A     52  35  52 W14       29.75F                  
ONTARIO        PTCLDY    65  46  50 CALM      29.72S                  
$$